Meteo Giornale » Osservazioni meteo Svezia » Stockholm-Arlanda

ore: 01:50 - Osservazioni Meteo Stockholm-Arlanda
Lat. 59° 39' N Lon. 17° 57' E Alt. 38 metri s.l.m.

molto_nuvoloso Europe/Stockholm

15 °C

Molto Nuvoloso

Temp. 24 Ore

12 °C

22 °C

Nord

14.8 Km/h

Dew point 11 °C

Umidità 76 %

Visibilità  10 Km

Il sole sorge alle ore 04:16

Il sole tramonta alle ore 21:32

Data e Ora Cielo e Fenomeni T °C DP °C Um. % Pres. hPa Vis. km Vento km/h
Oggi h: 01:50 molto_nuvoloso Molto Nuvoloso 15 11 76 1009 10 N 14.8
Oggi h: 01:20 molto_nuvoloso Molto Nuvoloso 15 12 82 1009 10 N/NE 16.7
Oggi h: 00:50 molto_nuvoloso Molto Nuvoloso 15 12 82 1010 10 N 14.8
Oggi h: 00:20 molto_nuvoloso Molto Nuvoloso 15 12 82 1010 10 N 14.8
Ieri h: 23:50 nuvoloso Nuvoloso 14 12 87 1010 10 N 13
Ieri h: 23:20 sereno Sereno 14 12 87 1010 10 N 13
Ieri h: 22:50 poco_nuvoloso Poco Nuvoloso 14 11 82 1010 10 N 13
Ieri h: 22:20 molto_nuvoloso Molto Nuvoloso 16 10 67 1011 10 N/NE 14.8
Ieri h: 21:50 molto_nuvoloso Molto Nuvoloso 16 10 67 1011 10 N 16.7
Ieri h: 21:20 nuvoloso Nuvoloso 16 10 67 1011 10 N/NE 13
Ieri h: 20:50 nuvoloso Nuvoloso 17 10 63 1011 10 N/NE 18.5
Ieri h: 20:20 sereno Sereno 17 10 63 1010 10 N 22.2
Ieri h: 19:50 sereno Sereno 18 9 55 1010 10 N/NE 24
Ieri h: 19:20 sereno Sereno 19 10 55 1010 10 N/NE 25.9
Ieri h: 18:50 sereno Sereno 20 9 49 1010 10 N/NE 25.9
Ieri h: 18:20 sereno Sereno 20 9 49 1010 10 NE 22.2
Ieri h: 17:50 sereno Sereno 21 9 46 1010 10 NE 24
Ieri h: 17:20 sereno Sereno 20 9 49 1010 10 N/NE 24
Ieri h: 16:50 sereno Sereno 20 8 45 1011 10 NE 24
Ieri h: 16:20 sereno Sereno 22 9 43 1011 10 NE 22.2
Ieri h: 15:50 sereno Sereno 21 9 46 1011 10 E/NE 24
Ieri h: 15:20 poco_nuvoloso Poco Nuvoloso 21 10 49 1011 10 NE 24
Ieri h: 14:50 nuvoloso Nuvoloso 21 10 49 1011 10 E/NE 20.3
Ieri h: 14:20 sereno Sereno 21 10 49 1011 10 NE 20.3
Ieri h: 13:50 poco_nuvoloso Poco Nuvoloso 21 10 49 1011 10 N/NE 20.3
Ieri h: 13:20 molto_nuvoloso Molto Nuvoloso 21 11 52 1011 10 E 18.5
Ieri h: 12:50 molto_nuvoloso Molto Nuvoloso 21 11 52 1011 10 E/NE 18.5
Ieri h: 12:20 molto_nuvoloso Molto Nuvoloso 20 12 59 1011 10 E/NE 24
Ieri h: 11:50 nuvoloso Nuvoloso 19 13 68 1011 10 NE 18.5
Ieri h: 11:20 molto_nuvoloso Molto Nuvoloso 19 13 68 1011 10 E/NE 13
Ieri h: 10:50 molto_nuvoloso Molto Nuvoloso 19 13 68 1011 10 E/NE 13
Ieri h: 10:20 molto_nuvoloso Molto Nuvoloso 18 13 72 1011 10 E 11.1
Ieri h: 09:50 molto_nuvoloso Molto Nuvoloso 18 13 72 1012 10 E/NE 11.1
Ieri h: 09:20 molto_nuvoloso Molto Nuvoloso 18 13 72 1012 10 N/NE 16.7
Ieri h: 08:50 molto_nuvoloso Molto Nuvoloso 18 13 72 1012 10 N/NE 14.8
Ieri h: 08:20 molto_nuvoloso Molto Nuvoloso 17 13 77 1012 10 N/NE 13
Ieri h: 07:50 molto_nuvoloso Molto Nuvoloso 15 13 87 1012 10 N/NE 11.1
Ieri h: 07:20 molto_nuvoloso Molto Nuvoloso 15 13 87 1012 10 N/NE 11.1
Ieri h: 06:20 molto_nuvoloso Molto Nuvoloso 14 12 87 1012 10 N 16.7
Ieri h: 05:50 molto_nuvoloso Molto Nuvoloso 13 12 93 1012 10 N/NO 13
Ieri h: 05:20 molto_nuvoloso Molto Nuvoloso 13 12 93 1012 10 NO 11.1
Ieri h: 04:50 molto_nuvoloso Molto Nuvoloso 13 12 93 1013 10 NO 11.1
Ieri h: 04:20 molto_nuvoloso Molto Nuvoloso 13 12 93 1013 10 N/NO 9.3
Ieri h: 03:50 molto_nuvoloso Molto Nuvoloso 13 12 93 1013 10 N 5.5
Ieri h: 03:20 molto_nuvoloso Molto Nuvoloso 12 11 93 1013 10 N/NO 7.4
Ieri h: 02:50 molto_nuvoloso Molto Nuvoloso 12 11 93 1013 10 N/NO 9.3